NK0V Weather Reports


Display with metric or nautical units.
time (UTC)temp
F
wind
direction
speed
MPH
gust
MPH
rain 1hr
in
rain 24hr
in
rain mn
in
humidity
%
barometer
mb
20260831195558 85 225 0.0 4.0 0.00 0.00 0.00 53 1014.4
20260831195057 85 248 1.0 4.0 0.00 0.00 0.00 53 1014.4
20260831194639 84 251 1.0 7.0 0.00 0.00 0.00 55 1014.4
20260831194057 85 249 2.0 7.0 0.00 0.00 0.00 53 1014.4
20260831193558 85 0 0.0 4.0 0.00 0.00 0.00 54 1014.4
20260831193058 85 360 1.0 4.0 0.00 0.00 0.00 51 1014.4
20260831192558 85 272 1.0 4.0 0.00 0.00 0.00 51 1014.4
20260831192058 85 0 1.0 6.0 0.00 0.00 0.00 53 1014.4
20260831191606 86 263 1.0 6.0 0.00 0.00 0.00 53 1014.4
20260831191058 86 267 0.0 6.0 0.00 0.00 0.00 54 1014.4
20260831190558 86 0 1.0 4.0 0.00 0.00 0.00 54 1014.4
20260831190123 85 0 0.0 3.0 0.00 0.00 0.00 53 1014.4
20260831185558 85 257 0.0 6.0 0.00 0.00 0.00 53 1014.3
20260831185057 85 0 1.0 6.0 0.00 0.00 0.00 47 1014.3
20260831184611 85 0 2.0 6.0 0.00 0.00 0.00 46 1014.3
20260831184057 85 272 0.0 4.0 0.00 0.00 0.00 47 1014.2
20260831183557 85 256 1.0 4.0 0.00 0.00 0.00 45 1014.2
20260831183112 85 320 1.0 4.0 0.00 0.00 0.00 46 1014.2
20260831182601 85 264 1.0 4.0 0.00 0.00 0.00 48 1014.2
20260831182057 84 292 1.0 4.0 0.00 0.00 0.00 49 1014.3
20260831181606 84 261 0.0 3.0 0.00 0.00 0.00 51 1014.3
20260831181058 84 0 0.0 4.0 0.00 0.00 0.00 49 1014.2
20260831180558 84 326 1.0 4.0 0.00 0.00 0.00 49 1014.2
20260831180105 84 13 0.0 4.0 0.00 0.00 0.00 51 1014.2
20260831175600 84 296 0.0 4.0 0.00 0.00 0.00 50 1014.3
20260831175058 83 352 1.0 4.0 0.00 0.00 0.00 49 1014.2
20260831174633 83 336 2.0 5.0 0.00 0.00 0.00 52 1014.3
20260831174057 82 284 1.0 5.0 0.00 0.00 0.00 55 1014.3
20260831173558 82 355 1.0 9.0 0.00 0.00 0.00 56 1014.3
20260831173102 82 288 2.0 9.0 0.00 0.00 0.00 57 1014.4
20260831172558 82 12 2.0 6.0 0.00 0.00 0.00 56 1014.3
20260831172057 81 10 0.0 9.0 0.00 0.00 0.00 58 1014.3
20260831171604 81 259 2.0 9.0 0.00 0.00 0.00 57 1014.3
20260831171058 81 33 3.0 9.0 0.00 0.00 0.00 50 1014.3
20260831170558 81 355 3.0 8.0 0.00 0.00 0.00 50 1014.4
20260831170120 81 5 0.0 4.0 0.00 0.00 0.00 52 1014.5
20260831165559 81 0 1.0 4.0 0.00 0.00 0.00 53 1014.5
20260831165058 80 23 1.0 4.0 0.00 0.00 0.00 56 1014.5
20260831164600 80 247 1.0 3.0 0.00 0.00 0.00 56 1014.6
20260831164102 80 0 0.0 6.0 0.00 0.00 0.00 56 1014.7
20260831163558 79 28 0.0 7.0 0.00 0.00 0.00 59 1014.7
20260831163106 79 51 2.0 7.0 0.00 0.00 0.00 55 1014.6
20260831162559 78 314 2.0 5.0 0.00 0.00 0.00 56 1014.6
20260831162058 78 0 1.0 4.0 0.00 0.00 0.00 58 1014.6
20260831161606 78 270 1.0 5.0 0.00 0.00 0.00 58 1014.6
20260831161058 78 28 1.0 7.0 0.00 0.00 0.00 59 1014.6
20260831160558 78 0 2.0 7.0 0.00 0.00 0.00 57 1014.5
20260831160100 78 339 2.0 8.0 0.00 0.00 0.00 59 1014.6
20260831155559 77 319 2.0 8.0 0.00 0.00 0.00 62 1014.5
20260831155057 76 0 2.0 10.0 0.00 0.00 0.00 60 1014.5
20260831154621 77 327 4.0 10.0 0.00 0.00 0.00 57 1014.4
20260831154057 77 342 3.0 9.0 0.00 0.00 0.00 56 1014.3
20260831153635 76 5 3.0 8.0 0.00 0.00 0.00 58 1014.2
20260831153114 76 315 1.0 10.0 0.00 0.00 0.00 68 1014.2
20260831152600 75 13 2.0 10.0 0.00 0.00 0.00 64 1014.2
20260831152100 74 22 3.0 9.0 0.00 0.00 0.00 63 1014.2
20260831151612 74 259 1.0 8.0 0.00 0.00 0.00 66 1014.2
20260831151100 73 341 2.0 7.0 0.00 0.00 0.00 68 1014.2
20260831150559 72 0 2.0 7.0 0.00 0.00 0.00 69 1014.0
20260831145559 70 348 1.0 7.0 0.00 0.00 0.00 81 1013.8
20260831145101 69 42 1.0 8.0 0.00 0.00 0.00 85 1013.8
20260831144607 68 360 3.0 8.0 0.00 0.00 0.00 88 1013.8
20260831144101 68 355 1.0 6.0 0.00 0.00 0.00 90 1013.8
20260831143600 67 319 1.0 4.0 0.00 0.00 0.00 91 1013.7
20260831143102 67 0 1.0 4.0 0.00 0.00 0.00 91 1013.7
20260831142600 67 318 0.0 3.0 0.00 0.00 0.00 91 1013.8
20260831142059 67 0 0.0 4.0 0.00 0.00 0.00 91 1013.8
20260831141605 67 0 1.0 4.0 0.00 0.00 0.00 91 1013.7
20260831141059 66 0 0.0 4.0 0.00 0.00 0.00 90 1013.7
20260831140601 66 0 0.0 4.0 0.00 0.00 0.00 90 1013.6
20260831135600 66 327 0.0 5.0 0.00 0.00 0.00 90 1013.6
20260831135100 66 0 0.0 5.0 0.00 0.00 0.00 90 1013.5
20260831134614 66 333 0.0 4.0 0.00 0.00 0.00 90 1013.5
20260831134059 65 329 1.0 4.0 0.00 0.00 0.00 90 1013.6
20260831133559 65 0 0.0 3.0 0.00 0.00 0.00 89 1013.5
20260831133105 65 0 0.0 3.0 0.00 0.00 0.00 89 1013.2
20260831132600 65 0 0.0 2.0 0.00 0.00 0.00 89 1013.1
20260831132058 65 0 0.0 2.0 0.00 0.00 0.00 89 1013.0
20260831131607 65 0 0.0 2.0 0.00 0.00 0.00 89 1012.7
20260831131058 65 0 0.0 2.0 0.00 0.00 0.00 89 1012.8
20260831130603 65 13 0.0 2.0 0.00 0.00 0.00 89 1012.6
20260831130106 65 0 0.0 3.0 0.00 0.00 0.00 89 1012.4
20260831125559 65 0 0.0 3.0 0.00 0.00 0.00 89 1012.5
20260831125100 65 0 0.0 3.0 0.00 0.00 0.00 89 1012.4
20260831124611 65 0 0.0 3.0 0.00 0.00 0.00 89 1012.3
20260831124059 65 0 0.0 3.0 0.00 0.00 0.00 89 1012.3
20260831123559 65 0 0.0 3.0 0.00 0.00 0.00 89 1012.3
20260831123057 65 0 0.0 2.0 0.00 0.00 0.00 88 1012.1
20260831122603 65 0 0.0 2.0 0.00 0.00 0.00 88 1012.1
20260831122054 65 360 0.0 1.0 0.00 0.00 0.00 88 1012.1
20260831121621 65 0 0.0 2.0 0.00 0.00 0.00 88 1012.1
20260831121054 65 314 0.0 3.0 0.00 0.00 0.00 88 1011.8
20260831120556 65 0 0.0 3.0 0.00 0.00 0.00 88 1011.8
20260831120104 65 269 0.0 3.0 0.00 0.00 0.00 88 1011.7
20260831115555 65 0 0.0 1.0 0.00 0.00 0.00 87 1011.6
20260831115101 65 0 0.0 0.0 0.00 0.00 0.00 87 1011.4
20260831114605 65 0 0.0 0.0 0.00 0.00 0.00 87 1011.5
20260831114057 65 0 0.0 0.0 0.00 0.00 0.00 87 1011.4
20260831113558 65 0 0.0 0.0 0.00 0.00 0.00 87 1011.5
20260831113110 65 0 0.0 0.0 0.00 0.00 0.00 87 1011.4
20260831112558 65 0 0.0 0.0 0.00 0.00 0.00 87 1011.3
20260831112057 65 0 0.0 0.0 0.00 0.00 0.00 88 1011.2
20260831111600 65 0 0.0 0.0 0.00 0.00 0.00 88 1011.1
20260831111054 65 0 0.0 0.0 0.00 0.00 0.00 88 1011.0
20260831110557 66 0 0.0 0.0 0.00 0.00 0.00 88 1010.9
20260831110104 66 0 0.0 0.0 0.00 0.00 0.00 88 1010.8
20260831105601 66 0 0.0 0.0 0.00 0.00 0.00 87 1010.6
20260831105058 66 0 0.0 0.0 0.00 0.00 0.00 87 1010.5
20260831104605 66 0 0.0 0.0 0.00 0.00 0.00 87 1010.5
20260831104058 66 0 0.0 0.0 0.00 0.00 0.00 87 1010.5
20260831103557 66 0 0.0 0.0 0.00 0.00 0.00 87 1010.5
20260831103107 66 0 0.0 0.0 0.00 0.00 0.00 87 1010.5
20260831102556 66 0 0.0 0.0 0.00 0.00 0.00 87 1010.5
20260831102054 66 0 0.0 0.0 0.00 0.00 0.00 86 1010.5
20260831101604 66 0 0.0 0.0 0.00 0.00 0.00 86 1010.4
20260831101056 67 0 0.0 0.0 0.00 0.00 0.00 86 1010.4
20260831100556 67 0 0.0 0.0 0.00 0.00 0.00 86 1010.4
20260831100100 67 0 0.0 0.0 0.00 0.00 0.00 86 1010.3
20260831095554 67 0 0.0 0.0 0.00 0.00 0.00 86 1010.3
20260831095054 67 0 0.0 0.0 0.00 0.00 0.00 87 1010.4
20260831094607 67 0 0.0 0.0 0.00 0.00 0.00 86 1010.2
20260831094058 67 0 0.0 0.0 0.00 0.00 0.00 86 1010.2
20260831093557 67 0 0.0 0.0 0.00 0.00 0.00 86 1010.2
20260831093152 68 0 0.0 0.0 0.00 0.00 0.00 87 1010.1
20260831092558 68 0 0.0 0.0 0.00 0.00 0.00 87 1009.9
20260831092058 68 0 0.0 1.0 0.00 0.00 0.00 86 1009.8
20260831091602 68 0 0.0 1.0 0.00 0.00 0.00 86 1009.7
20260831091058 68 0 0.0 1.0 0.00 0.00 0.00 86 1009.5
20260831090558 68 0 0.0 2.0 0.00 0.00 0.00 86 1009.4
20260831090103 68 0 0.0 2.0 0.00 0.00 0.00 86 1009.4
20260831085558 68 0 0.0 1.0 0.00 0.00 0.00 85 1009.4
20260831085058 68 0 0.0 2.0 0.00 0.00 0.00 85 1009.4
20260831084652 68 0 0.0 2.0 0.00 0.00 0.00 85 1009.3
20260831084057 68 0 0.0 2.0 0.00 0.00 0.00 85 1009.1
20260831083557 68 132 0.0 2.0 0.00 0.00 0.00 85 1009.1
20260831083107 68 0 0.0 2.0 0.00 0.00 0.00 85 1009.2
20260831082601 68 0 0.0 1.0 0.00 0.00 0.00 85 1009.0
20260831082057 68 0 0.0 1.0 0.00 0.00 0.00 84 1009.0
20260831081600 68 70 0.0 1.0 0.00 0.00 0.00 84 1009.1
20260831081058 69 0 0.0 1.0 0.00 0.00 0.00 84 1009.0
20260831080555 69 70 0.0 1.0 0.00 0.00 0.00 84 1008.9
20260831080121 69 0 0.0 1.0 0.00 0.00 0.00 84 1008.7
20260831075558 69 0 0.0 1.0 0.00 0.00 0.00 84 1008.8
20260831075058 69 0 0.0 1.0 0.00 0.00 0.00 84 1008.7
20260831074602 69 0 0.0 2.0 0.00 0.00 0.00 83 1008.7
20260831074058 69 5 0.0 2.0 0.00 0.00 0.00 83 1008.7
20260831073558 69 11 0.0 2.0 0.00 0.00 0.00 83 1008.8
20260831073100 70 0 1.0 2.0 0.00 0.00 0.00 82 1008.5
20260831072600 70 106 0.0 2.0 0.00 0.00 0.00 82 1008.7
20260831072058 70 72 0.0 2.0 0.00 0.00 0.00 82 1008.6
20260831071611 70 0 0.0 2.0 0.00 0.00 0.00 81 1008.6
20260831071057 70 94 1.0 2.0 0.00 0.00 0.00 81 1008.5
20260831070556 71 0 0.0 2.0 0.00 0.00 0.00 81 1008.7
20260831070114 71 141 0.0 2.0 0.00 0.00 0.00 81 1008.5
20260831065557 71 141 0.0 3.0 0.00 0.00 0.00 81 1008.6
20260831065057 71 0 0.0 3.0 0.00 0.00 0.00 80 1008.8
20260831064602 71 0 0.0 2.0 0.00 0.00 0.00 80 1008.8
20260831064056 71 124 0.0 2.0 0.00 0.00 0.00 80 1008.8
20260831063556 72 0 0.0 2.0 0.00 0.00 0.00 80 1008.7
20260831063110 72 141 0.0 2.0 0.00 0.00 0.00 80 1008.5
20260831062559 72 158 0.0 2.0 0.00 0.00 0.00 79 1008.5
20260831062055 72 158 0.0 2.0 0.00 0.00 0.00 79 1008.5
20260831061604 72 126 0.0 2.0 0.00 0.00 0.00 79 1008.5
20260831061056 72 0 0.0 2.0 0.00 0.00 0.00 79 1008.5
20260831060555 73 0 0.0 2.0 0.00 0.00 0.00 79 1008.6
20260831060058 73 207 0.0 4.0 0.00 0.00 0.00 78 1008.6
20260831055558 73 0 0.0 5.0 0.00 0.00 0.00 78 1008.5
20260831055056 73 198 1.0 5.0 0.00 0.00 0.00 78 1008.5
20260831054601 73 198 1.0 5.0 0.00 0.00 0.00 78 1008.4
20260831054058 73 120 0.0 7.0 0.00 0.00 0.00 78 1008.3
20260831053557 74 136 1.0 7.0 0.00 0.00 0.00 78 1008.3
20260831053105 74 122 1.0 6.0 0.00 0.00 0.00 78 1008.3
20260831052556 74 192 2.0 6.0 0.00 0.00 0.00 78 1008.3
20260831052059 74 0 1.0 5.0 0.00 0.00 0.00 78 1008.3
20260831051558 74 199 1.0 4.0 0.00 0.00 0.00 78 1008.3
20260831051056 74 215 1.0 4.0 0.00 0.00 0.00 77 1008.3
20260831050557 74 166 1.0 4.0 0.00 0.00 0.00 77 1008.3
20260831050108 75 205 1.0 5.0 0.00 0.00 0.00 77 1008.3
20260831045557 75 173 1.0 5.0 0.00 0.00 0.00 77 1008.4
20260831045057 75 205 1.0 5.0 0.00 0.00 0.00 78 1008.5
20260831044602 75 205 1.0 5.0 0.00 0.00 0.00 78 1008.4
20260831044056 75 217 2.0 6.0 0.00 0.00 0.00 78 1008.6
20260831043556 75 205 1.0 6.0 0.00 0.00 0.00 78 1008.7
20260831043103 75 188 1.0 7.0 0.00 0.00 0.00 78 1008.7
20260831042600 75 215 2.0 7.0 0.00 0.00 0.00 78 1008.7
20260831042056 75 255 2.0 6.0 0.00 0.00 0.00 78 1008.7
20260831041605 75 227 2.0 6.0 0.00 0.00 0.00 78 1008.5
20260831041059 76 196 2.0 6.0 0.00 0.00 0.00 78 1008.6
20260831040559 76 218 1.0 6.0 0.00 0.00 0.00 78 1008.5
20260831040106 76 221 1.0 5.0 0.00 0.00 0.00 78 1008.5
20260831035558 76 167 0.0 5.0 0.00 0.00 0.00 78 1008.6
20260831035056 76 0 1.0 7.0 0.00 0.00 0.00 78 1008.7
20260831034613 76 164 1.0 7.0 0.00 0.00 0.00 77 1008.6
20260831034054 76 197 2.0 7.0 0.00 0.00 0.00 77 1008.5
20260831033558 76 201 2.0 5.0 0.00 0.00 0.00 77 1008.5
20260831033106 77 0 1.0 4.0 0.00 0.00 0.00 77 1008.4
20260831032556 77 140 1.0 5.0 0.00 0.00 0.00 77 1008.5
20260831032056 77 0 1.0 5.0 0.00 0.00 0.00 77 1008.4
20260831031601 77 204 1.0 6.0 0.00 0.00 0.00 76 1008.3
20260831031100 77 204 2.0 8.0 0.00 0.00 0.00 76 1008.3
20260831030600 78 198 3.0 8.0 0.00 0.00 0.00 75 1008.2
20260831030106 78 141 2.0 8.0 0.00 0.00 0.00 75 1008.1
20260831025558 78 189 2.0 7.0 0.00 0.00 0.00 74 1008.1
20260831025057 78 126 1.0 5.0 0.00 0.00 0.00 74 1008.1
20260831024603 79 0 1.0 6.0 0.00 0.00 0.00 74 1008.1
20260831024100 79 198 2.0 6.0 0.00 0.00 0.00 73 1008.0
20260831023557 79 210 1.0 5.0 0.00 0.00 0.00 73 1008.0
20260831023121 79 135 1.0 5.0 0.00 0.00 0.00 72 1007.9
20260831022557 80 180 1.0 5.0 0.00 0.00 0.00 72 1007.7
20260831022058 80 193 1.0 4.0 0.00 0.00 0.00 72 1007.6
20260831021607 80 0 1.0 5.0 0.00 0.00 0.00 71 1007.6
20260831021057 80 170 1.0 6.0 0.00 0.00 0.00 71 1007.7
20260831020556 81 0 1.0 6.0 0.00 0.00 0.00 71 1007.6
20260831020109 81 147 1.0 5.0 0.00 0.00 0.00 70 1007.5
20260831015557 81 163 1.0 5.0 0.00 0.00 0.00 70 1007.5
20260831015057 82 153 0.0 5.0 0.00 0.00 0.00 69 1007.5
20260831014626 82 132 1.0 5.0 0.00 0.00 0.00 69 1007.4
20260831014056 82 223 1.0 4.0 0.00 0.00 0.00 69 1007.2
20260831013557 82 0 0.0 5.0 0.00 0.00 0.00 68 1007.2
20260831013116 83 190 1.0 6.0 0.00 0.00 0.00 67 1007.3
20260831012557 83 137 1.0 6.0 0.00 0.00 0.00 67 1007.2
20260831012056 83 211 1.0 6.0 0.00 0.00 0.00 66 1007.2
20260831011604 84 180 2.0 6.0 0.00 0.00 0.00 66 1007.3
20260831011056 84 186 1.0 4.0 0.00 0.00 0.00 65 1007.3
20260831010601 84 118 1.0 4.0 0.00 0.00 0.00 65 1007.2
20260831010109 84 126 1.0 4.0 0.00 0.00 0.00 64 1007.3
20260831005555 85 165 1.0 4.0 0.00 0.00 0.00 64 1007.2
20260831005058 85 149 1.0 3.0 0.00 0.00 0.00 64 1007.1
20260831004604 85 135 1.0 3.0 0.00 0.00 0.00 65 1007.1
20260831004058 85 178 1.0 3.0 0.00 0.00 0.00 64 1007.2
20260831003556 86 0 0.0 3.0 0.00 0.00 0.00 63 1007.1
20260831003103 86 205 1.0 3.0 0.00 0.00 0.00 63 1007.2
20260831002556 86 0 0.0 3.0 0.00 0.00 0.00 63 1007.2
20260831002057 86 241 0.0 4.0 0.00 0.00 0.00 63 1007.3
20260831001613 87 0 1.0 4.0 0.00 0.00 0.00 62 1007.3
20260831001058 87 213 1.0 4.0 0.00 0.00 0.00 62 1007.2
20260831000556 87 0 1.0 5.0 0.00 0.00 0.00 61 1007.3
20260830235556 88 212 1.0 4.0 0.00 0.00 0.00 59 1007.2
20260830235100 88 223 1.0 4.0 0.00 0.00 0.00 58 1007.1
20260830234602 88 207 1.0 5.0 0.00 0.00 0.00 58 1007.0
20260830234056 89 197 1.0 7.0 0.00 0.00 0.00 58 1007.0
20260830233554 89 202 2.0 7.0 0.00 0.00 0.00 57 1006.9
20260830233125 89 146 2.0 7.0 0.00 0.00 0.00 57 1006.9
20260830232555 89 155 2.0 7.0 0.00 0.00 0.00 56 1006.8
20260830232057 90 221 1.0 7.0 0.00 0.00 0.00 56 1006.9
20260830231602 90 152 2.0 6.0 0.00 0.00 0.00 56 1006.8
20260830231056 90 159 1.0 5.0 0.00 0.00 0.00 57 1006.8
20260830230554 91 206 2.0 6.0 0.00 0.00 0.00 56 1006.7
20260830230110 91 130 2.0 6.0 0.00 0.00 0.00 56 1006.7
20260830225556 91 209 1.0 6.0 0.00 0.00 0.00 56 1006.8
20260830225056 91 193 2.0 5.0 0.00 0.00 0.00 56 1006.8
20260830224609 92 198 2.0 5.0 0.00 0.00 0.00 55 1006.7
20260830224055 92 169 1.0 5.0 0.00 0.00 0.00 55 1006.6
20260830223555 92 204 1.0 7.0 0.00 0.00 0.00 54 1006.6
20260830223104 92 182 1.0 9.0 0.00 0.00 0.00 53 1006.6
20260830222555 92 144 2.0 9.0 0.00 0.00 0.00 51 1006.6
20260830222054 92 213 3.0 9.0 0.00 0.00 0.00 50 1006.6
20260830221600 92 209 2.0 9.0 0.00 0.00 0.00 51 1006.6
20260830221054 93 152 3.0 9.0 0.00 0.00 0.00 50 1006.5
20260830220554 93 213 2.0 8.0 0.00 0.00 0.00 51 1006.6
20260830220106 93 206 3.0 9.0 0.00 0.00 0.00 50 1006.6
20260830215555 93 219 2.0 9.0 0.00 0.00 0.00 50 1006.5
20260830215057 93 227 3.0 7.0 0.00 0.00 0.00 49 1006.7
20260830214600 93 221 2.0 7.0 0.00 0.00 0.00 50 1006.7
20260830214054 93 202 3.0 7.0 0.00 0.00 0.00 50 1006.7
20260830213554 93 197 2.0 7.0 0.00 0.00 0.00 50 1006.7
20260830213102 93 226 2.0 8.0 0.00 0.00 0.00 51 1006.7
20260830212555 93 215 4.0 8.0 0.00 0.00 0.00 49 1006.6
20260830212055 93 204 3.0 7.0 0.00 0.00 0.00 51 1006.8
20260830211558 93 221 2.0 10.0 0.00 0.00 0.00 50 1006.7
20260830211057 93 151 5.0 10.0 0.00 0.00 0.00 49 1006.8
20260830210557 93 244 4.0 9.0 0.00 0.00 0.00 50 1006.7
20260830210106 93 230 3.0 9.0 0.00 0.00 0.00 51 1006.8
20260830205555 94 186 2.0 10.0 0.00 0.00 0.00 52 1006.9
20260830205101 94 229 3.0 10.0 0.00 0.00 0.00 51 1006.9
20260830204600 94 230 2.0 8.0 0.00 0.00 0.00 52 1006.9
20260830204056 94 234 2.0 7.0 0.00 0.00 0.00 53 1006.9
20260830203555 94 227 2.0 6.0 0.00 0.00 0.00 53 1006.8
20260830203100 94 130 1.0 6.0 0.00 0.00 0.00 54 1006.8
20260830202558 94 188 2.0 6.0 0.00 0.00 0.00 55 1006.9
20260830202056 94 171 2.0 8.0 0.00 0.00 0.00 52 1006.9
20260830201559 94 167 3.0 9.0 0.00 0.00 0.00 52 1007.0
20260830201057 94 155 3.0 10.0 0.00 0.00 0.00 53 1007.0
20260830200554 94 182 3.0 10.0 0.00 0.00 0.00 55 1007.0